Weather History for KPOB - December, 2012

Change the Weather History Date:

Sunday, December 9, 2012

  Actual Average Record
Temperature  
Mean Temperature 61 °F -  
Max Temperature 71 °F 59 °F 78 °F (1986)
Min Temperature 51 °F 35 °F 15 °F (2006)
Degree Days  
Heating Degree Days 4    
Growing Degree Days 11 (Base 50)    
Moisture  
Dew Point 58 °F    
Average Humidity 92    
Maximum Humidity 100    
Minimum Humidity 70    
Precipitation  
Precipitation 0.01 in - - ()
Sea Level Pressure  
Sea Level Pressure 30.08 in    
Wind  
Wind Speed 3 mph (SW)    
Max Wind Speed 14 mph    
Max Gust Speed -    
Visibility 8 miles    
Events Fog , Rain    
Averages and records for this station are not official NWS values.
T = Trace of Precipitation, MM = Missing Value Source: NWS Daily Summary

Daily Weather History Graph

Daily Weather History Graph

Search for Another Location

Airport or City:

Trip Planner

Search our weather history database for the weather conditions in past years. The results will help you decide how hot, cold, wet, or windy it might be!

Date:

Astronomy

Dec. 09, 2012 Rise Set
Actual Time 7:13 AM EST 5:04 PM EST
Civil Twilight 6:45 AM EST 5:32 PM EST
Nautical Twilight 6:13 AM EST 6:03 PM EST
Astronomical Twilight 5:42 AM EST 6:34 PM EST
Moon 2:50 AM EST (12/9) 2:03 PM EST (12/9)
Length of Visible Light 10h 47m
Length of Day
9h 50m
Waning Crescent, 19% of the Moon is Illuminated
Dec 9
Waning Crescent
Dec 13
New
Dec 20
First Quarter
Dec 28
Full
Jan 4
Last Quarter

Hourly Weather History & Observations

Time (EST) Temp. Dew Point Humidity Pressure Visibility Wind Dir Wind Speed Gust Speed Precip Events Conditions
12:55 AM 57.9 °F 54.7 °F 89% 30.08 in 10.0 mi SW 5.8 mph - N/A   Overcast
1:55 AM 52.5 °F 51.1 °F 95% 30.09 in 10.0 mi Calm Calm - N/A   Mostly Cloudy
2:55 AM 52.5 °F 51.1 °F 95% 30.09 in 10.0 mi Calm Calm - N/A   Overcast
3:55 AM 55.0 °F 53.2 °F 94% 30.09 in 10.0 mi SW 4.6 mph - N/A   Overcast
4:55 AM 54.0 °F 52.7 °F 95% 30.09 in 10.0 mi Calm Calm - N/A   Overcast
5:20 AM 53.6 °F 51.8 °F 94% 30.09 in 10.0 mi Calm Calm - N/A   Mostly Cloudy
5:21 AM 53.6 °F 51.8 °F 94% 30.09 in 10.0 mi Calm Calm - N/A   Light Drizzle
5:32 AM 55.4 °F 53.6 °F 94% 30.10 in 10.0 mi Calm Calm - N/A   Mostly Cloudy
5:55 AM 53.8 °F 52.9 °F 97% 30.11 in 10.0 mi Calm Calm - 0.00 in   Overcast
6:47 AM 51.8 °F 51.8 °F 100% 30.12 in 7.0 mi Calm Calm - N/A   Mostly Cloudy
6:55 AM 52.0 °F 51.4 °F 98% 30.13 in 9.0 mi Calm Calm - N/A   Mostly Cloudy
6:59 AM 51.8 °F 51.8 °F 100% 30.13 in 9.0 mi Calm Calm - N/A   Mostly Cloudy
7:55 AM 51.1 °F 50.5 °F 98% 30.14 in 10.0 mi Calm Calm - N/A   Scattered Clouds
8:42 AM 51.8 °F 51.8 °F 100% 30.14 in 10.0 mi Calm Calm - N/A   Mostly Cloudy
8:47 AM 53.6 °F 53.6 °F 100% 30.14 in 10.0 mi Calm Calm - N/A   Mostly Cloudy
8:49 AM 53.6 °F 53.6 °F 100% 30.14 in 10.0 mi Calm Calm - N/A   Mostly Cloudy
8:55 AM 55.4 °F 54.1 °F 96% 30.14 in 10.0 mi Calm Calm - N/A   Scattered Clouds
9:09 AM 59.0 °F 55.4 °F 88% 30.14 in 10.0 mi SW 4.6 mph - N/A   Mostly Cloudy
9:16 AM 60.8 °F 57.2 °F 88% 30.14 in 10.0 mi SW 6.9 mph - N/A   Mostly Cloudy
9:21 AM 60.8 °F 57.2 °F 88% 30.14 in 10.0 mi WSW 8.1 mph - N/A   Mostly Cloudy
9:24 AM 60.8 °F 57.2 °F 88% 30.15 in 10.0 mi SW 9.2 mph - N/A   Mostly Cloudy
9:25 AM 60.8 °F 57.2 °F 88% 30.15 in 10.0 mi SW 8.1 mph - N/A   Mostly Cloudy
9:55 AM 60.8 °F 58.6 °F 93% 30.15 in 10.0 mi WSW 5.8 mph - N/A   Overcast
9:58 AM 60.8 °F 59.0 °F 94% 30.15 in 10.0 mi WSW 5.8 mph - N/A   Overcast
10:19 AM 62.6 °F 59.0 °F 88% 30.15 in 10.0 mi West 4.6 mph - N/A   Overcast
10:39 AM 64.4 °F 60.8 °F 88% 30.14 in 10.0 mi SW 5.8 mph - N/A   Overcast
10:45 AM 64.4 °F 60.8 °F 88% 30.14 in 10.0 mi SW 8.1 mph - N/A   Overcast
10:51 AM 64.4 °F 60.8 °F 88% 30.14 in 10.0 mi WSW 5.8 mph - N/A   Overcast
10:55 AM 65.5 °F 60.8 °F 85% 30.14 in 10.0 mi WSW 5.8 mph - N/A   Overcast
11:03 AM 66.2 °F 60.8 °F 83% 30.14 in 10.0 mi West 4.6 mph - N/A   Mostly Cloudy
11:13 AM 66.2 °F 60.8 °F 83% 30.13 in 10.0 mi West 5.8 mph - N/A   Mostly Cloudy
11:19 AM 68.0 °F 60.8 °F 78% 30.12 in 10.0 mi Variable 4.6 mph - N/A   Mostly Cloudy
11:21 AM 68.0 °F 60.8 °F 78% 30.12 in 10.0 mi SW 5.8 mph - N/A   Mostly Cloudy
11:42 AM 68.0 °F 62.6 °F 83% 30.12 in 10.0 mi SW 9.2 mph - N/A   Mostly Cloudy
11:43 AM 68.0 °F 62.6 °F 83% 30.12 in 10.0 mi SW 9.2 mph - N/A   Mostly Cloudy
11:48 AM 68.0 °F 62.6 °F 83% 30.11 in 10.0 mi SW 12.7 mph - N/A   Mostly Cloudy
11:55 AM 69.1 °F 62.4 °F 79% 30.11 in 10.0 mi SW 10.4 mph - N/A   Mostly Cloudy
12:19 PM 69.8 °F 62.6 °F 78% 30.10 in 10.0 mi SW 10.4 mph - N/A   Mostly Cloudy
12:55 PM 69.4 °F 61.9 °F 77% 30.08 in 10.0 mi SW 8.1 mph - N/A   Mostly Cloudy
1:55 PM 70.9 °F 61.7 °F 73% 30.07 in 10.0 mi SW 13.8 mph - N/A   Scattered Clouds
2:55 PM 71.8 °F 61.3 °F 70% 30.06 in 10.0 mi SW 6.9 mph - N/A   Scattered Clouds
3:55 PM 71.4 °F 62.1 °F 72% 30.06 in 10.0 mi SW 9.2 mph - N/A   Mostly Cloudy
4:55 PM 68.2 °F 61.5 °F 79% 30.06 in 10.0 mi SW 3.5 mph - N/A   Clear
5:55 PM 62.1 °F 59.0 °F 90% 30.06 in 10.0 mi Calm Calm - N/A   Clear
6:55 PM 59.5 °F 58.5 °F 96% 30.06 in 10.0 mi Calm Calm - N/A   Partly Cloudy
7:47 PM 59.0 °F 57.2 °F 94% 30.06 in 8.0 mi Calm Calm - N/A Rain Light Rain
7:54 PM 59.0 °F 59.0 °F 100% 30.06 in 6.0 mi West 4.6 mph - N/A Rain Light Rain
7:55 PM 59.7 °F 59.0 °F 97% 30.06 in 6.0 mi West 4.6 mph - 0.01 in Rain Light Rain
8:02 PM 60.8 °F 59.0 °F 94% 30.06 in 8.0 mi Calm Calm - N/A Rain Light Rain
8:06 PM 60.8 °F 59.0 °F 94% 30.06 in 10.0 mi Calm Calm - N/A   Mostly Cloudy
8:23 PM 59.0 °F 59.0 °F 100% 30.05 in 1.8 mi Calm Calm - N/A   Scattered Clouds
8:24 PM 59.0 °F 59.0 °F 100% 30.05 in 1.2 mi Calm Calm - N/A   Scattered Clouds
8:26 PM 59.0 °F 59.0 °F 100% 30.05 in 1.0 mi Calm Calm - N/A   Scattered Clouds
8:27 PM 59.0 °F 59.0 °F 100% 30.05 in 0.8 mi Calm Calm - N/A   Scattered Clouds
8:29 PM 59.0 °F 57.2 °F 94% 30.05 in 0.5 mi Calm Calm - N/A Fog Fog
8:30 PM 59.0 °F 57.2 °F 94% 30.05 in 0.5 mi Calm Calm - N/A Fog Fog
8:31 PM 59.0 °F 57.2 °F 94% 30.06 in 0.5 mi Calm Calm - N/A Fog Fog
8:40 PM 57.2 °F 57.2 °F 100% 30.05 in 0.5 mi Calm Calm - N/A Fog Fog
8:42 PM 57.2 °F 57.2 °F 100% 30.05 in 0.8 mi Calm Calm - N/A   Mostly Cloudy
8:44 PM 57.2 °F 57.2 °F 100% 30.05 in 1.0 mi Calm Calm - N/A   Mostly Cloudy
8:45 PM 57.2 °F 57.2 °F 100% 30.05 in 1.2 mi Calm Calm - N/A   Mostly Cloudy
8:47 PM 59.0 °F 57.2 °F 94% 30.05 in 1.8 mi Calm Calm - N/A   Mostly Cloudy
8:48 PM 59.0 °F 57.2 °F 94% 30.05 in 2.0 mi Calm Calm - N/A   Mostly Cloudy
8:49 PM 59.0 °F 57.2 °F 94% 30.05 in 2.5 mi Calm Calm - N/A   Mostly Cloudy
8:50 PM 59.0 °F 57.2 °F 94% 30.05 in 3.0 mi Calm Calm - N/A   Mostly Cloudy
8:52 PM 59.0 °F 57.2 °F 94% 30.05 in 4.0 mi Calm Calm - N/A   Mostly Cloudy
8:55 PM 58.6 °F 58.5 °F 99% 30.05 in 5.0 mi Calm Calm - 0.00 in Rain Light Rain
8:59 PM 59.0 °F 59.0 °F 100% 30.05 in 7.0 mi SE 4.6 mph - N/A Rain Light Rain
9:04 PM 60.8 °F 60.8 °F 100% 30.05 in 8.0 mi South 3.5 mph - N/A   Overcast
9:11 PM 62.6 °F 62.6 °F 100% 30.04 in 10.0 mi South 4.6 mph - N/A   Mostly Cloudy
9:55 PM 58.6 °F 57.9 °F 97% 30.04 in 6.0 mi Calm Calm - 0.00 in   Partly Cloudy
10:03 PM 59.0 °F 57.2 °F 94% 30.04 in 7.0 mi SSE 3.5 mph - N/A   Partly Cloudy
10:35 PM 64.4 °F 62.6 °F 94% 30.03 in 10.0 mi South 4.6 mph - N/A   Mostly Cloudy
10:55 PM 64.2 °F 62.2 °F 93% 30.02 in 10.0 mi Calm Calm - N/A   Overcast
10:57 PM 64.4 °F 62.6 °F 94% 30.02 in 10.0 mi Calm Calm - N/A   Mostly Cloudy
11:05 PM 64.4 °F 62.6 °F 94% 30.02 in 10.0 mi South 4.6 mph - N/A   Mostly Cloudy
11:16 PM 64.4 °F 62.6 °F 94% 30.02 in 10.0 mi South 3.5 mph - N/A   Overcast
11:34 PM 64.4 °F 62.6 °F 94% 30.01 in 10.0 mi South 3.5 mph - N/A Rain Light Rain
11:44 PM 64.4 °F 62.6 °F 94% 30.00 in 10.0 mi South 4.6 mph - N/A   Overcast
11:55 PM 64.9 °F 62.8 °F 93% 29.99 in 10.0 mi South 3.5 mph - 0.00 in   Overcast